This is the latest recevied weather packets stored in our database for station/object W8AN. If no packets are shown the sender has not sent any weather packets the latest 10 day(s).
| Time | Temp. | Humidity | Pressure | Rain* | Wind** | Luminosity | Snow |
|---|---|---|---|---|---|---|---|
| 1777616470 | 6.67° C | 76% | 4269.1 hPa | 0 mm | - | 0 W/m² | - |
| 1777616167 | 7.22° C | 74% | 4268.8 hPa | 0 mm | - | 0 W/m² | - |
| 1777615864 | 7.22° C | 72% | 4268.8 hPa | 0 mm | - | 0 W/m² | - |
| 1777615561 | 7.22° C | 72% | 4268.7 hPa | 0 mm | - | 0 W/m² | - |
| 1777615257 | 7.22° C | 72% | 4269 hPa | 0 mm | - | 0 W/m² | - |
| 1777614956 | 7.22° C | 72% | 4269 hPa | 0 mm | - | 0 W/m² | - |
| 1777614653 | 7.22° C | 70% | 4268.9 hPa | 0 mm | - | 0 W/m² | - |
| 1777614349 | 7.22° C | 71% | 4268.9 hPa | 0 mm | - | 0 W/m² | - |
| 1777614044 | 7.78° C | 72% | 4269.2 hPa | 0 mm | - | 0 W/m² | - |
| 1777613740 | 7.78° C | 71% | 4269.1 hPa | 0 mm | - | 0 W/m² | - |
| 1777613438 | 7.78° C | 71% | 4269 hPa | 0 mm | - | 0 W/m² | - |
| 1777613134 | 7.78° C | 70% | 4269.2 hPa | 0 mm | - | 0 W/m² | - |
| 1777612830 | 7.78° C | 71% | 4269.2 hPa | 0 mm | - | 0 W/m² | - |
| 1777612527 | 7.78° C | 69% | 4269.4 hPa | 0 mm | - | 0 W/m² | - |
| 1777612222 | 7.78° C | 70% | 4269.4 hPa | 0 mm | - | 0 W/m² | - |
| 1777611917 | 7.78° C | 70% | 4269.5 hPa | 0 mm | - | 0 W/m² | - |
| 1777611613 | 7.78° C | 69% | 4269.3 hPa | 0 mm | - | 0 W/m² | - |
| 1777611310 | 7.78° C | 69% | 4269.3 hPa | 0 mm | - | 0 W/m² | - |
| 1777611007 | 7.78° C | 68% | 4269.2 hPa | 0 mm | - | 0 W/m² | - |
| 1777610702 | 8.33° C | 66% | 4269.1 hPa | 0 mm | - | 0 W/m² | - |
| 1777610401 | 8.33° C | 66% | 4269.1 hPa | 0 mm | - | 0 W/m² | - |
| 1777610097 | 8.33° C | 67% | 4269 hPa | 0 mm | - | 0 W/m² | - |
| 1777609795 | 8.33° C | 64% | 4269.2 hPa | 0 mm | - | 0 W/m² | - |
| 1777609491 | 8.89° C | 63% | 4269.2 hPa | 0 mm | - | 0 W/m² | - |
| 1777609189 | 8.89° C | 66% | 4269.2 hPa | 0 mm | - | 0 W/m² | - |
* Rain latest hour (hover to see other rain measurements)
** Current wind speed in m/s (hover to see current wind gust speed)